TimeHST,TemperatureF,Dew PointF,Humidity,Sea Level PressureIn,VisibilityMPH,Wind Direction,Wind SpeedMPH,Gust SpeedMPH,PrecipitationIn,Events,Conditions,WindDirDegrees,DateUTC
12:53 AM,66.9,62.1,84,30.04,10.0,NW,3.5,-,N/A,,Scattered Clouds,310,2012-12-23 10:53:00
1:53 AM,66.9,62.1,84,30.03,10.0,WNW,3.5,-,N/A,,Partly Cloudy,290,2012-12-23 11:53:00
2:53 AM,66.0,63.0,90,30.01,10.0,North,3.5,-,N/A,,Partly Cloudy,350,2012-12-23 12:53:00
3:53 AM,66.0,63.0,90,30.00,10.0,Calm,Calm,-,N/A,,Partly Cloudy,0,2012-12-23 13:53:00
4:53 AM,66.9,63.0,87,30.00,10.0,NW,3.5,-,N/A,,Partly Cloudy,320,2012-12-23 14:53:00
5:53 AM,66.0,63.0,90,30.01,10.0,Calm,Calm,-,N/A,,Partly Cloudy,0,2012-12-23 15:53:00
6:53 AM,66.0,63.0,90,30.03,10.0,Calm,Calm,-,N/A,,Scattered Clouds,0,2012-12-23 16:53:00
7:53 AM,66.9,64.0,90,30.04,10.0,NNW,4.6,-,N/A,,Scattered Clouds,340,2012-12-23 17:53:00
8:53 AM,73.0,64.0,73,30.04,10.0,NNE,5.8,-,N/A,,Partly Cloudy,20,2012-12-23 18:53:00
9:53 AM,77.0,61.0,58,30.04,10.0,Variable,4.6,-,N/A,,Partly Cloudy,0,2012-12-23 19:53:00
10:53 AM,80.1,59.0,48,30.02,10.0,Calm,Calm,-,N/A,,Partly Cloudy,0,2012-12-23 20:53:00
11:53 AM,78.1,62.1,58,30.00,10.0,SSE,10.4,-,N/A,,Partly Cloudy,160,2012-12-23 21:53:00
12:53 PM,77.0,61.0,58,29.96,10.0,SSE,11.5,-,N/A,,Scattered Clouds,150,2012-12-23 22:53:00
1:53 PM,79.0,61.0,54,29.94,10.0,SE,12.7,-,N/A,,Scattered Clouds,130,2012-12-23 23:53:00
2:53 PM,81.0,59.0,47,29.93,10.0,SSE,8.1,-,N/A,,Scattered Clouds,150,2012-12-24 00:53:00
3:53 PM,79.0,55.9,45,29.92,10.0,SE,3.5,-,N/A,,Scattered Clouds,140,2012-12-24 01:53:00
4:53 PM,80.1,57.9,47,29.93,10.0,NNE,10.4,-,N/A,,Scattered Clouds,30,2012-12-24 02:53:00
5:53 PM,75.9,55.9,50,29.94,10.0,ENE,8.1,-,N/A,,Partly Cloudy,70,2012-12-24 03:53:00
6:53 PM,73.0,61.0,66,29.96,10.0,NNE,3.5,-,N/A,,Clear,20,2012-12-24 04:53:00
7:53 PM,72.0,61.0,68,29.99,10.0,Calm,Calm,-,N/A,,Clear,0,2012-12-24 05:53:00
8:53 PM,71.1,62.1,73,30.00,10.0,SW,3.5,-,N/A,,Partly Cloudy,230,2012-12-24 06:53:00
9:53 PM,71.1,63.0,75,30.00,10.0,NW,4.6,-,N/A,,Clear,310,2012-12-24 07:53:00
10:53 PM,70.0,62.1,76,30.01,10.0,WNW,4.6,-,N/A,,Partly Cloudy,290,2012-12-24 08:53:00
11:53 PM,70.0,63.0,78,30.01,10.0,North,4.6,-,N/A,,Partly Cloudy,350,2012-12-24 09:53:00